This demonstration page uses our WeatherBlox Daily Observations layout. Learn more.

Left ArrowRight Arrow

44.8408, -93.29828

Hourly Observations for August 13, 2017

Temp ( °F °C ) Dew Point ( °F °C ) Humidity (%) Winds ( mph kmh ) Pressure ( in mb ) Visibility ( mi km ) Precip ( " mm )
12:53 am 00:53 Mostly Cloudy 65 18.3 52 11.1 63 63 ESE 5 7 30.06 1018 10 16 0.00 0.00
1:53 am 01:53 Mostly Cloudy 65 18.3 52 11.1 63 63 SE 5 7 30.04 1017 10 16 0.00 0.00
2:53 am 02:53 Mostly Cloudy 63 17.2 52 11.1 68 68 SE 3 6 30.04 1017 10 16 0.00 0.00
3:53 am 03:53 Mostly Cloudy 62 16.7 51 10.6 67 67 ESE 3 6 30.03 1017 10 16 0.00 0.00
4:53 am 04:53 Mostly Cloudy 62 16.7 51 10.6 67 67 SE 5 7 30.02 1017 10 16 0.00 0.00
5:53 am 05:53 Cloudy 62 16.7 52 11.1 70 70 SE 6 9 30.02 1017 10 16 0.00 0.00
6:53 am 06:53 Cloudy 62 16.7 53 11.7 73 73 SE 6 9 30.03 1017 10 16 0.00 0.03
7:53 am 07:53 Cloudy with Light Rain 62 16.7 53 11.7 73 73 SE 3 6 30.02 1017 10 16 0.00 0.03
8:53 am 08:53 Cloudy 64 17.8 53 11.7 68 68 SSE 7 11 30.01 1016 10 16 0.00 0.03
9:53 am 09:53 Cloudy 66 18.9 54 12.2 65 65 SSE 9 15 30.01 1016 10 16 0.00 0.00
10:53 am 10:53 Cloudy 67 19.4 55 12.8 66 66 SSE 9 15 30.00 1016 10 16 0.00 0.00
11:53 am 11:53 Cloudy 71 21.7 57 13.9 61 61 S 8 13 30.00 1016 10 16 0.00 0.00
12:53 pm 12:53 Cloudy with Light Rain 70 21.1 58 14.4 66 66 SSE 6 9 29.99 1016 8 13 0.00 0.03
1:53 pm 13:53 Cloudy with Light Rain 68 20 58 14.4 70 70 S 14 22 30.00 1016 8 13 0.00 0.03
2:53 pm 14:53 Cloudy 66 18.9 60 15.6 81 81 SE 6 9 29.98 1015 10 16 0.01 0.25
3:53 pm 15:53 Cloudy 68 20 60 15.6 76 76 SE 9 15 29.96 1015 10 16 0.00 0.00
4:53 pm 16:53 Cloudy 71 21.7 60 15.6 68 68 SE 10 17 29.93 1014 10 16 0.00 0.00
5:53 pm 17:53 Mostly Cloudy 71 21.7 59 15 66 66 SE 12 19 29.91 1013 10 16 0.00 0.00
6:53 pm 18:53 Cloudy with Light Rain 70 21.1 61 16.1 73 73 SSE 7 11 29.89 1012 9 14 0.00 0.03
7:53 pm 19:53 Cloudy with Light Rain 68 20 63 17.2 84 84 SE 7 11 29.89 1012 10 16 0.06 1.52
8:53 pm 20:53 Cloudy 68 20 62 16.7 81 81 S 8 13 29.88 1012 10 16 0.01 0.25
9:53 pm 21:53 Cloudy with Light Rain 67 19.4 61 16.1 81 81 SE 7 11 29.88 1012 10 16 0.00 0.03
10:05 pm 22:05 Cloudy with Nearby Thunderstorms 67 19.4 61 16.1 81 81 SSE 6 9 29.88 1012 10 16 0.00 0.03
10:23 pm 22:23 Cloudy with Light Rain 66 18.9 61 16.1 84 84 SSE 9 15 29.88 1012 10 16 0.01 0.25
10:31 pm 22:31 Cloudy with Nearby Thunderstorms 66 18.9 61 16.1 84 84 SSE 10 17 29.88 1012 5 8 0.02 0.51
10:42 pm 22:42 Cloudy with Thunderstorms 66 18.9 60 15.6 81 81 SSE 12 19 29.91 1013 3 5 0.04 1.02
10:53 pm 22:53 Cloudy with Strong Thunderstorms 65 18.3 60 15.6 84 84 VRB 7 11 29.89 1012 3 4 0.18 4.57
11:05 pm 23:05 Cloudy with Strong Thunderstorms 64 17.8 60 15.6 87 87 SE 13 20 29.88 1012 2 3 0.22 5.59
11:17 pm 23:17 Cloudy with Strong Thunderstorms 63 17.2 60 15.6 90 90 VRB 3 6 29.91 1013 2 3 0.39 9.91
11:39 pm 23:39 Cloudy with Strong Thunderstorms 63 17.2 60 15.6 90 90 ENE 10 17 29.91 1013 4 6 0.55 13.97
11:53 pm 23:53 Cloudy with Light Rain 63 17.2 59 15 87 87 E 15 24 29.88 1012 6 10 0.65 16.51

Powered by AerisWeather